Jaffrey, NH

11:44 PM EDT on April 24, 2017 (GMT -0400)
Jaffrey Airport-Silver Ranch

Weather History for KAFN - September, 2013

Change the Weather History Date:

Thursday, September 5, 2013

  Actual Average Record
Temperature  
Mean Temperature 56 °F -  
Max Temperature 66 °F 72 °F 84 °F (2008)
Min Temperature 45 °F 51 °F 37 °F (2000)
Degree Days  
Heating Degree Days 9    
Growing Degree Days 6 (Base 50)    
Moisture  
Dew Point 48 °F    
Average Humidity 71    
Maximum Humidity 93    
Minimum Humidity 36    
Precipitation  
Precipitation 0.00 in - - ()
Sea Level Pressure  
Sea Level Pressure 30.02 in    
Wind  
Wind Speed 3 mph (SSW)    
Max Wind Speed 7 mph    
Max Gust Speed 16 mph    
Visibility 10 miles    
Events      
Averages and records for this station are not official NWS values.
T = Trace of Precipitation, MM = Missing Value Source: NWS Daily Summary

Daily Weather History Graph

Daily Weather History Graph

Search for Another Location

Airport or City:

Trip Planner

Search our weather history database for the weather conditions in past years. The results will help you decide how hot, cold, wet, or windy it might be!

Date:

Astronomy

Sep. 05, 2013 Rise Set
Actual Time 6:17 AM EDT 7:15 PM EDT
Civil Twilight 5:48 AM EDT 7:43 PM EDT
Nautical Twilight 5:13 AM EDT 8:18 PM EDT
Astronomical Twilight 4:37 AM EDT 8:54 PM EDT
Moon 6:27 AM EDT (9/5) 7:03 PM EDT (9/5)
Length of Visible Light 13h 55m
Length of Day
12h 58m
New Moon, 0% of the Moon is Illuminated
Sep 5
New Moon
Sep 12
First Quarter
Sep 19
Full
Sep 26
Last Quarter
Oct 4
New

Hourly Weather History & Observations

Time (EDT) Temp. Dew Point Humidity Pressure Visibility Wind Dir Wind Speed Gust Speed Precip Events Conditions
12:52 AM 55.9 °F 54.0 °F 93% 29.93 in 10.0 mi Calm Calm - N/A   Scattered Clouds
1:52 AM 59.0 °F 54.0 °F 83% 29.91 in 10.0 mi South 5.8 mph - N/A   Overcast
2:52 AM 60.1 °F 53.1 °F 78% 29.91 in 10.0 mi SSW 3.5 mph - N/A   Overcast
3:52 AM 60.1 °F 55.0 °F 83% 29.89 in 10.0 mi South 5.8 mph - N/A   Overcast
4:52 AM 60.1 °F 55.9 °F 86% 29.91 in 10.0 mi South 6.9 mph - N/A   Mostly Cloudy
5:52 AM 59.0 °F 55.9 °F 90% 29.92 in 10.0 mi Calm Calm - 0.00 in   Mostly Cloudy
6:52 AM 60.1 °F 55.9 °F 86% 29.93 in 10.0 mi Calm Calm - N/A   Overcast
7:52 AM 61.0 °F 55.9 °F 83% 29.95 in 10.0 mi Calm Calm - N/A   Mostly Cloudy
8:20 AM 60.8 °F 55.4 °F 82% 29.96 in 10.0 mi Calm Calm - N/A   Overcast
8:52 AM 62.1 °F 55.9 °F 80% 29.99 in 10.0 mi Variable 3.5 mph - N/A   Mostly Cloudy
9:14 AM 60.8 °F 51.8 °F 72% 29.99 in 10.0 mi Variable 5.8 mph - N/A   Partly Cloudy
9:52 AM 61.0 °F 51.1 °F 70% 29.99 in 10.0 mi Variable 3.5 mph - N/A   Partly Cloudy
10:52 AM 60.1 °F 51.1 °F 72% 30.02 in 10.0 mi Variable 3.5 mph - N/A   Mostly Cloudy
11:12 AM 60.8 °F 51.8 °F 72% 30.01 in 10.0 mi Variable 3.5 mph - N/A   Overcast
11:44 AM 62.6 °F 48.2 °F 59% 30.01 in 10.0 mi Variable 5.8 mph - N/A   Mostly Cloudy
11:52 AM 63.0 °F 48.9 °F 60% 30.02 in 10.0 mi Variable 5.8 mph - N/A   Scattered Clouds
12:52 PM 63.0 °F 45.0 °F 52% 30.02 in 10.0 mi Variable 4.6 mph - N/A   Mostly Cloudy
1:52 PM 64.9 °F 37.9 °F 37% 30.02 in 10.0 mi Variable 4.6 mph - N/A   Scattered Clouds
2:52 PM 66.0 °F 39.0 °F 37% 30.03 in 10.0 mi Calm Calm - N/A   Clear
3:52 PM 64.0 °F 41.0 °F 43% 30.04 in 10.0 mi Variable 4.6 mph - N/A   Overcast
4:52 PM 64.9 °F 37.0 °F 36% 30.05 in 10.0 mi Variable 6.9 mph 16.1 mph N/A   Clear
5:52 PM 64.0 °F 37.0 °F 37% 30.07 in 10.0 mi NNW 6.9 mph - N/A   Partly Cloudy
6:52 PM 59.0 °F 42.1 °F 53% 30.09 in 10.0 mi Calm Calm - N/A   Partly Cloudy
7:52 PM 53.1 °F 46.0 °F 77% 30.11 in 10.0 mi Calm Calm - N/A   Clear
8:52 PM 48.9 °F 45.0 °F 86% 30.14 in 10.0 mi Calm Calm - N/A   Clear
9:52 PM 46.9 °F 44.1 °F 90% 30.17 in 10.0 mi Calm Calm - N/A   Clear
10:52 PM 46.0 °F 43.0 °F 89% 30.18 in 10.0 mi Calm Calm - N/A   Clear
11:52 PM 45.0 °F 42.1 °F 90% 30.20 in 10.0 mi Calm Calm - N/A   Clear